Time,TemperatureF,DewpointF,PressureIn,WindDirection,WindDirectionDegrees,WindSpeedMPH,WindSpeedGustMPH,Humidity,HourlyPrecipIn,Conditions,Clouds,dailyrainin,SoftwareType,DateUTC
2013-02-21 00:02:00,41.2,37.4,30.01,WNW,294,6.0,10.0,86,0.00,,,0.00,meteohub,2013-02-21 08:02:00,
2013-02-21 00:07:00,41.4,37.6,30.01,WNW,294,4.0,9.0,86,0.00,,,0.00,meteohub,2013-02-21 08:07:00,
2013-02-21 00:12:00,41.2,37.4,30.01,WNW,294,5.0,9.0,86,0.00,,,0.00,meteohub,2013-02-21 08:12:00,
2013-02-21 00:17:00,41.4,37.6,30.01,WNW,294,5.0,9.0,86,0.00,,,0.00,meteohub,2013-02-21 08:17:00,
2013-02-21 00:22:00,41.4,37.2,30.01,WNW,294,5.0,7.0,85,0.00,,,0.00,meteohub,2013-02-21 08:22:00,
2013-02-21 00:27:00,41.5,37.4,30.02,WNW,294,5.0,7.0,85,0.00,,,0.00,meteohub,2013-02-21 08:27:00,
2013-02-21 00:32:00,41.5,37.4,30.02,WNW,294,3.0,7.0,85,0.00,,,0.00,meteohub,2013-02-21 08:32:00,
2013-02-21 00:37:00,41.5,37.0,30.02,WNW,294,4.0,7.0,84,0.00,,,0.00,meteohub,2013-02-21 08:37:00,
2013-02-21 00:42:00,41.5,37.0,30.01,WNW,294,3.0,7.0,84,0.00,,,0.00,meteohub,2013-02-21 08:42:00,
2013-02-21 00:47:00,41.5,37.0,30.01,WNW,294,3.0,6.0,84,0.00,,,0.00,meteohub,2013-02-21 08:47:00,
2013-02-21 00:52:00,41.4,36.9,30.01,WNW,294,3.0,6.0,84,0.00,,,0.00,meteohub,2013-02-21 08:52:00,
2013-02-21 00:57:00,41.4,36.9,30.02,WNW,294,3.0,6.0,84,0.00,,,0.00,meteohub,2013-02-21 08:57:00,
2013-02-21 01:02:00,41.4,37.2,30.02,WNW,294,3.0,6.0,85,0.00,,,0.00,meteohub,2013-02-21 09:02:00,
2013-02-21 01:07:00,41.2,37.0,30.02,WNW,294,0.0,6.0,85,0.00,,,0.00,meteohub,2013-02-21 09:07:00,
2013-02-21 01:12:00,41.0,36.9,30.02,WNW,294,0.0,5.0,85,0.00,,,0.00,meteohub,2013-02-21 09:12:00,
2013-02-21 01:17:00,40.8,36.7,30.02,WNW,294,0.0,4.0,85,0.00,,,0.00,meteohub,2013-02-21 09:17:00,
2013-02-21 01:22:00,40.6,36.5,30.02,WNW,294,0.0,3.0,85,0.00,,,0.00,meteohub,2013-02-21 09:22:00,
2013-02-21 01:27:00,40.6,36.9,30.03,WNW,294,0.0,2.0,86,0.00,,,0.00,meteohub,2013-02-21 09:27:00,
2013-02-21 01:32:00,40.6,36.9,30.03,WNW,294,0.0,2.0,86,0.00,,,0.00,meteohub,2013-02-21 09:32:00,
2013-02-21 01:37:00,40.8,37.0,30.03,WNW,294,1.0,2.0,86,0.00,,,0.00,meteohub,2013-02-21 09:37:00,
2013-02-21 01:42:00,40.8,36.7,30.03,WNW,294,3.0,3.0,85,0.00,,,0.00,meteohub,2013-02-21 09:42:00,
2013-02-21 01:47:00,40.8,36.7,30.03,WNW,294,3.0,4.0,85,0.00,,,0.00,meteohub,2013-02-21 09:47:00,
2013-02-21 01:52:00,41.2,36.7,30.03,WNW,294,0.0,5.0,84,0.00,,,0.00,meteohub,2013-02-21 09:52:00,
2013-02-21 01:57:00,41.4,36.9,30.02,WNW,294,0.0,5.0,84,0.00,,,0.00,meteohub,2013-02-21 09:57:00,
2013-02-21 02:02:00,41.5,36.7,30.02,WNW,294,0.0,5.0,83,0.00,,,0.00,meteohub,2013-02-21 10:02:00,
2013-02-21 02:07:00,41.5,36.5,30.02,WNW,294,1.0,4.0,82,0.00,,,0.00,meteohub,2013-02-21 10:07:00,
2013-02-21 02:12:00,41.4,36.3,30.01,WNW,294,0.0,3.0,82,0.00,,,0.00,meteohub,2013-02-21 10:12:00,
2013-02-21 02:17:00,41.4,36.3,30.01,WNW,294,0.0,2.0,82,0.00,,,0.00,meteohub,2013-02-21 10:17:00,
2013-02-21 02:22:00,41.2,36.1,30.01,WNW,294,0.0,2.0,82,0.00,,,0.00,meteohub,2013-02-21 10:22:00,
2013-02-21 02:27:00,41.0,36.0,30.02,WNW,294,0.0,1.0,82,0.00,,,0.00,meteohub,2013-02-21 10:27:00,
2013-02-21 02:32:00,40.6,35.6,30.02,WNW,294,0.0,1.0,82,0.00,,,0.00,meteohub,2013-02-21 10:32:00,
2013-02-21 02:37:00,40.5,35.4,30.02,WNW,294,0.0,1.0,82,0.00,,,0.00,meteohub,2013-02-21 10:37:00,
2013-02-21 02:42:00,40.5,35.8,30.02,WNW,294,1.0,1.0,83,0.00,,,0.00,meteohub,2013-02-21 10:42:00,
2013-02-21 02:47:00,40.5,35.8,30.02,WNW,294,0.0,2.0,83,0.00,,,0.00,meteohub,2013-02-21 10:47:00,
2013-02-21 02:52:00,40.5,35.8,30.02,WNW,294,0.0,3.0,83,0.00,,,0.00,meteohub,2013-02-21 10:52:00,
2013-02-21 02:57:00,40.3,35.6,30.01,WNW,294,0.0,3.0,83,0.00,,,0.00,meteohub,2013-02-21 10:57:00,
2013-02-21 03:02:00,40.1,35.4,30.01,WNW,294,0.0,1.0,83,0.00,,,0.00,meteohub,2013-02-21 11:02:00,
2013-02-21 03:07:00,39.9,35.2,30.01,WNW,294,0.0,2.0,83,0.00,,,0.00,meteohub,2013-02-21 11:07:00,
2013-02-21 03:12:00,39.7,35.1,30.01,WNW,294,2.0,2.0,83,0.00,,,0.00,meteohub,2013-02-21 11:12:00,
2013-02-21 03:17:00,39.7,35.1,30.01,WNW,294,0.0,4.0,83,0.00,,,0.00,meteohub,2013-02-21 11:17:00,
2013-02-21 03:22:00,39.6,34.9,30.01,WNW,294,0.0,4.0,83,0.00,,,0.00,meteohub,2013-02-21 11:22:00,
2013-02-21 03:27:00,39.4,34.7,30.01,WNW,294,2.0,4.0,83,0.00,,,0.00,meteohub,2013-02-21 11:27:00,
2013-02-21 03:32:00,39.2,34.5,30.01,WNW,294,2.0,4.0,83,0.00,,,0.00,meteohub,2013-02-21 11:32:00,
2013-02-21 03:37:00,38.8,34.2,30.01,WNW,294,2.0,4.0,83,0.00,,,0.00,meteohub,2013-02-21 11:37:00,
2013-02-21 03:42:00,38.8,34.3,30.02,WNW,294,3.0,4.0,84,0.00,,,0.00,meteohub,2013-02-21 11:42:00,
2013-02-21 03:47:00,38.8,34.3,30.02,WNW,294,2.0,4.0,84,0.00,,,0.00,meteohub,2013-02-21 11:47:00,
2013-02-21 03:52:00,38.8,34.3,30.02,WNW,294,2.0,4.0,84,0.00,,,0.00,meteohub,2013-02-21 11:52:00,
2013-02-21 03:57:00,38.8,34.3,30.01,WNW,294,1.0,4.0,84,0.00,,,0.00,meteohub,2013-02-21 11:57:00,
2013-02-21 04:02:00,38.8,34.7,30.01,WNW,294,1.0,4.0,85,0.00,,,0.00,meteohub,2013-02-21 12:02:00,
2013-02-21 04:07:00,39.0,34.9,30.01,WNW,294,3.0,3.0,85,0.00,,,0.00,meteohub,2013-02-21 12:07:00,
2013-02-21 04:12:00,39.4,35.2,30.02,WNW,294,2.0,4.0,85,0.00,,,0.00,meteohub,2013-02-21 12:12:00,
2013-02-21 04:17:00,39.2,34.7,30.02,WNW,294,0.0,4.0,84,0.00,,,0.00,meteohub,2013-02-21 12:17:00,
2013-02-21 04:22:00,39.6,35.4,30.02,WNW,294,1.0,4.0,85,0.00,,,0.00,meteohub,2013-02-21 12:22:00,
2013-02-21 04:27:00,39.6,35.1,30.02,WNW,294,0.0,4.0,84,0.00,,,0.00,meteohub,2013-02-21 12:27:00,
2013-02-21 04:32:00,39.6,35.1,30.02,WNW,294,0.0,3.0,84,0.00,,,0.00,meteohub,2013-02-21 12:32:00,
2013-02-21 04:37:00,39.6,35.1,30.02,WNW,294,0.0,3.0,84,0.00,,,0.00,meteohub,2013-02-21 12:37:00,
2013-02-21 04:42:00,39.6,35.1,30.02,WNW,294,2.0,3.0,84,0.00,,,0.00,meteohub,2013-02-21 12:42:00,
2013-02-21 04:47:00,39.7,35.2,30.02,WNW,294,2.0,3.0,84,0.00,,,0.00,meteohub,2013-02-21 12:47:00,
2013-02-21 04:52:00,39.7,35.1,30.02,WNW,294,0.0,4.0,83,0.00,,,0.00,meteohub,2013-02-21 12:52:00,
2013-02-21 04:57:00,39.9,35.2,30.02,WNW,294,0.0,4.0,83,0.00,,,0.00,meteohub,2013-02-21 12:57:00,
2013-02-21 05:02:00,39.9,34.9,30.02,WNW,294,1.0,4.0,82,0.00,,,0.00,meteohub,2013-02-21 13:02:00,
2013-02-21 05:07:00,39.7,34.7,30.02,WNW,294,3.0,5.0,82,0.00,,,0.00,meteohub,2013-02-21 13:07:00,
2013-02-21 05:12:00,39.9,34.5,30.02,WNW,294,4.0,5.0,81,0.00,,,0.00,meteohub,2013-02-21 13:12:00,
2013-02-21 05:17:00,39.7,34.3,30.02,WNW,294,0.0,6.0,81,0.00,,,0.00,meteohub,2013-02-21 13:17:00,
2013-02-21 05:22:00,39.4,34.0,30.02,WNW,294,3.0,6.0,81,0.00,,,0.00,meteohub,2013-02-21 13:22:00,
2013-02-21 05:27:00,39.2,34.5,30.04,WNW,294,2.0,6.0,83,0.00,,,0.00,meteohub,2013-02-21 13:27:00,
2013-02-21 05:32:00,39.6,34.9,30.04,WNW,294,0.0,4.0,83,0.00,,,0.00,meteohub,2013-02-21 13:32:00,
2013-02-21 05:37:00,39.9,34.9,30.04,WNW,294,0.0,4.0,82,0.00,,,0.00,meteohub,2013-02-21 13:37:00,
2013-02-21 05:42:00,39.7,34.3,30.04,WNW,294,0.0,3.0,81,0.00,,,0.00,meteohub,2013-02-21 13:42:00,
2013-02-21 05:47:00,39.7,34.3,30.04,WNW,294,2.0,3.0,81,0.00,,,0.00,meteohub,2013-02-21 13:47:00,
2013-02-21 05:52:00,39.6,34.2,30.04,WNW,294,3.0,3.0,81,0.00,,,0.00,meteohub,2013-02-21 13:52:00,
2013-02-21 05:57:00,39.4,34.0,30.04,WNW,294,0.0,4.0,81,0.00,,,0.00,meteohub,2013-02-21 13:57:00,
2013-02-21 06:02:00,38.8,33.8,30.04,WNW,294,3.0,4.0,82,0.00,,,0.00,meteohub,2013-02-21 14:02:00,
2013-02-21 06:07:00,39.0,34.3,30.04,WNW,294,4.0,4.0,83,0.00,,,0.00,meteohub,2013-02-21 14:07:00,
2013-02-21 06:12:00,39.6,34.9,30.04,WNW,297,2.0,9.0,83,0.00,,,0.00,meteohub,2013-02-21 14:12:00,
2013-02-21 06:17:00,39.6,34.5,30.04,WNW,297,0.0,9.0,82,0.00,,,0.00,meteohub,2013-02-21 14:17:00,
2013-02-21 06:22:00,39.6,34.5,30.04,WNW,297,0.0,9.0,82,0.00,,,0.00,meteohub,2013-02-21 14:22:00,
2013-02-21 06:27:00,39.4,34.3,30.04,WNW,297,2.0,5.0,82,0.00,,,0.00,meteohub,2013-02-21 14:27:00,
2013-02-21 06:32:00,39.4,34.7,30.04,WNW,297,1.0,5.0,83,0.00,,,0.00,meteohub,2013-02-21 14:32:00,
2013-02-21 06:37:00,39.6,34.9,30.04,WNW,297,0.0,5.0,83,0.00,,,0.00,meteohub,2013-02-21 14:37:00,
2013-02-21 06:42:00,39.6,34.5,30.05,WNW,297,0.0,4.0,82,0.00,,,0.00,meteohub,2013-02-21 14:42:00,
2013-02-21 06:47:00,39.6,34.5,30.05,WNW,297,0.0,4.0,82,0.00,,,0.00,meteohub,2013-02-21 14:47:00,
2013-02-21 06:52:00,39.2,34.2,30.05,WNW,297,0.0,4.0,82,0.00,,,0.00,meteohub,2013-02-21 14:52:00,
2013-02-21 06:57:00,38.8,33.8,30.05,WNW,297,0.0,4.0,82,0.00,,,0.00,meteohub,2013-02-21 14:57:00,
2013-02-21 07:02:00,38.7,34.0,30.05,WNW,297,0.0,1.0,83,0.00,,,0.00,meteohub,2013-02-21 15:02:00,
2013-02-21 07:07:00,38.8,34.3,30.05,WNW,297,0.0,1.0,84,0.00,,,0.00,meteohub,2013-02-21 15:07:00,
2013-02-21 07:12:00,39.0,34.5,30.06,WNW,297,0.0,2.0,84,0.00,,,0.00,meteohub,2013-02-21 15:12:00,
2013-02-21 07:17:00,39.0,34.5,30.06,WNW,297,0.0,2.0,84,0.00,,,0.00,meteohub,2013-02-21 15:17:00,
2013-02-21 07:22:00,38.8,34.2,30.06,WNW,297,0.0,3.0,83,0.00,,,0.00,meteohub,2013-02-21 15:22:00,
2013-02-21 07:27:00,38.7,34.2,30.06,WNW,297,0.0,3.0,84,0.00,,,0.00,meteohub,2013-02-21 15:27:00,
2013-02-21 07:32:00,38.8,34.3,30.06,WNW,297,3.0,3.0,84,0.00,,,0.00,meteohub,2013-02-21 15:32:00,
2013-02-21 07:37:00,39.6,35.4,30.06,WNW,299,4.0,5.0,85,0.00,,,0.00,meteohub,2013-02-21 15:37:00,
2013-02-21 07:42:00,39.9,35.4,30.07,WNW,299,4.0,8.0,84,0.00,,,0.00,meteohub,2013-02-21 15:42:00,
2013-02-21 07:47:00,40.3,35.6,30.07,NW,308,5.0,8.0,83,0.00,,,0.00,meteohub,2013-02-21 15:47:00,
2013-02-21 07:52:00,40.6,36.0,30.07,NNW,347,5.0,9.0,83,0.00,,,0.00,meteohub,2013-02-21 15:52:00,
2013-02-21 07:57:00,40.8,35.8,30.07,North,350,6.0,9.0,82,0.00,,,0.00,meteohub,2013-02-21 15:57:00,
2013-02-21 08:02:00,41.2,36.1,30.07,NNW,347,5.0,9.0,82,0.00,,,0.00,meteohub,2013-02-21 16:02:00,
2013-02-21 08:07:00,41.4,36.3,30.07,NNW,334,5.0,8.0,82,0.00,,,0.00,meteohub,2013-02-21 16:07:00,
2013-02-21 08:12:00,41.7,36.7,30.09,NNW,331,2.0,11.0,82,0.00,,,0.00,meteohub,2013-02-21 16:12:00,
2013-02-21 08:17:00,41.7,36.3,30.09,NNW,331,0.0,11.0,81,0.00,,,0.00,meteohub,2013-02-21 16:17:00,
2013-02-21 08:22:00,42.1,36.7,30.09,NNW,331,0.0,11.0,81,0.00,,,0.00,meteohub,2013-02-21 16:22:00,
2013-02-21 08:27:00,42.4,37.0,30.09,NNW,331,4.0,7.0,81,0.00,,,0.00,meteohub,2013-02-21 16:27:00,
2013-02-21 08:32:00,42.8,37.0,30.09,NW,319,2.0,8.0,80,0.00,,,0.00,meteohub,2013-02-21 16:32:00,
2013-02-21 08:37:00,42.8,37.4,30.09,NW,319,3.0,8.0,81,0.00,,,0.00,meteohub,2013-02-21 16:37:00,
2013-02-21 08:42:00,43.0,37.2,30.09,NW,315,7.0,8.0,80,0.00,,,0.00,meteohub,2013-02-21 16:42:00,
2013-02-21 08:47:00,43.2,37.4,30.09,NW,312,7.0,9.0,80,0.00,,,0.00,meteohub,2013-02-21 16:47:00,
2013-02-21 08:52:00,43.3,37.2,30.09,WNW,302,7.0,9.0,79,0.00,,,0.00,meteohub,2013-02-21 16:52:00,
2013-02-21 08:57:00,43.3,37.6,30.10,WNW,298,5.0,11.0,80,0.00,,,0.00,meteohub,2013-02-21 16:57:00,
2013-02-21 09:02:00,43.7,37.6,30.10,WNW,292,3.0,11.0,79,0.00,,,0.00,meteohub,2013-02-21 17:02:00,
2013-02-21 09:07:00,43.9,37.2,30.10,WNW,289,5.0,11.0,77,0.00,,,0.00,meteohub,2013-02-21 17:07:00,
2013-02-21 09:12:00,44.2,38.1,30.10,WNW,284,7.0,10.0,79,0.00,,,0.00,meteohub,2013-02-21 17:12:00,
2013-02-21 09:17:00,44.2,38.1,30.10,West,278,6.0,9.0,79,0.00,,,0.00,meteohub,2013-02-21 17:17:00,
2013-02-21 09:22:00,44.2,37.8,30.10,West,265,5.0,10.0,78,0.00,,,0.00,meteohub,2013-02-21 17:22:00,
2013-02-21 09:27:00,44.4,37.6,30.10,WNW,288,4.0,10.0,77,0.00,,,0.00,meteohub,2013-02-21 17:27:00,
2013-02-21 09:32:00,44.8,38.3,30.10,WNW,288,4.0,10.0,78,0.00,,,0.00,meteohub,2013-02-21 17:32:00,
2013-02-21 09:37:00,45.1,38.7,30.10,NW,305,6.0,9.0,78,0.00,,,0.00,meteohub,2013-02-21 17:37:00,
2013-02-21 09:42:00,45.5,38.7,30.10,NW,305,6.0,10.0,77,0.00,,,0.00,meteohub,2013-02-21 17:42:00,
2013-02-21 09:47:00,46.0,39.2,30.10,WNW,298,8.0,10.0,77,0.00,,,0.00,meteohub,2013-02-21 17:47:00,
2013-02-21 09:52:00,46.6,38.7,30.10,WNW,296,6.0,11.0,74,0.00,,,0.00,meteohub,2013-02-21 17:52:00,
2013-02-21 09:57:00,46.9,39.0,30.11,NW,309,7.0,11.0,74,0.00,,,0.00,meteohub,2013-02-21 17:57:00,
2013-02-21 10:02:00,47.1,39.6,30.11,WNW,282,7.0,11.0,75,0.00,,,0.00,meteohub,2013-02-21 18:02:00,
2013-02-21 10:07:00,47.3,40.1,30.11,WNW,289,5.0,10.0,76,0.00,,,0.00,meteohub,2013-02-21 18:07:00,
2013-02-21 10:12:00,47.5,39.9,30.12,West,273,6.0,10.0,75,0.00,,,0.00,meteohub,2013-02-21 18:12:00,
2013-02-21 10:17:00,47.8,40.6,30.12,West,281,4.0,9.0,76,0.00,,,0.00,meteohub,2013-02-21 18:17:00,
2013-02-21 10:22:00,47.8,39.6,30.12,West,276,6.0,9.0,73,0.00,,,0.00,meteohub,2013-02-21 18:22:00,
2013-02-21 10:27:00,48.2,40.3,30.12,West,274,5.0,10.0,74,0.00,,,0.00,meteohub,2013-02-21 18:27:00,
2013-02-21 10:32:00,48.6,40.3,30.12,West,273,6.0,10.0,73,0.00,,,0.00,meteohub,2013-02-21 18:32:00,
2013-02-21 10:37:00,49.1,40.5,30.12,West,278,11.0,13.0,72,0.00,,,0.00,meteohub,2013-02-21 18:37:00,
2013-02-21 10:47:00,49.8,40.5,30.12,West,280,7.0,13.0,70,0.00,,,0.00,meteohub,2013-02-21 18:47:00,
2013-02-21 10:52:00,50.2,41.5,30.12,West,279,7.0,12.0,72,0.00,,,0.00,meteohub,2013-02-21 18:52:00,
2013-02-21 10:57:00,50.4,39.7,30.12,WNW,284,6.0,11.0,67,0.00,,,0.00,meteohub,2013-02-21 18:57:00,
2013-02-21 11:02:00,50.5,39.9,30.12,WNW,288,5.0,12.0,67,0.00,,,0.00,meteohub,2013-02-21 19:02:00,
2013-02-21 11:07:00,50.7,39.7,30.12,West,269,5.0,12.0,66,0.00,,,0.00,meteohub,2013-02-21 19:07:00,
2013-02-21 11:12:00,51.3,39.9,30.11,West,266,3.0,12.0,65,0.00,,,0.00,meteohub,2013-02-21 19:12:00,
2013-02-21 11:17:00,52.0,40.1,30.11,WNW,285,8.0,12.0,64,0.00,,,0.00,meteohub,2013-02-21 19:17:00,
2013-02-21 11:22:00,52.0,39.4,30.11,West,272,9.0,12.0,62,0.00,,,0.00,meteohub,2013-02-21 19:22:00,
2013-02-21 11:27:00,52.2,38.3,30.12,WNW,290,8.0,11.0,59,0.00,,,0.00,meteohub,2013-02-21 19:27:00,
2013-02-21 11:32:00,52.3,37.9,30.12,WNW,296,9.0,11.0,58,0.00,,,0.00,meteohub,2013-02-21 19:32:00,
2013-02-21 11:37:00,52.2,39.6,30.12,WNW,285,10.0,13.0,62,0.00,,,0.00,meteohub,2013-02-21 19:37:00,
2013-02-21 11:42:00,52.2,40.3,30.12,West,261,8.0,14.0,64,0.00,,,0.00,meteohub,2013-02-21 19:42:00,
2013-02-21 11:47:00,52.5,39.9,30.12,West,275,9.0,14.0,62,0.00,,,0.00,meteohub,2013-02-21 19:47:00,
2013-02-21 11:52:00,52.9,39.7,30.12,West,275,8.0,13.0,61,0.00,,,0.00,meteohub,2013-02-21 19:52:00,
2013-02-21 11:57:00,52.9,41.4,30.11,West,267,8.0,13.0,65,0.00,,,0.00,meteohub,2013-02-21 19:57:00,
2013-02-21 12:02:00,53.1,40.8,30.11,West,273,10.0,13.0,63,0.00,,,0.00,meteohub,2013-02-21 20:02:00,
2013-02-21 12:07:00,52.9,40.3,30.11,West,278,9.0,13.0,62,0.00,,,0.00,meteohub,2013-02-21 20:07:00,
2013-02-21 12:12:00,52.9,41.0,30.10,West,264,9.0,14.0,64,0.00,,,0.00,meteohub,2013-02-21 20:12:00,
2013-02-21 12:17:00,53.2,41.4,30.10,West,273,13.0,14.0,64,0.00,,,0.00,meteohub,2013-02-21 20:17:00,
2013-02-21 12:22:00,53.4,39.9,30.10,West,269,7.0,14.0,60,0.00,,,0.00,meteohub,2013-02-21 20:22:00,
2013-02-21 12:27:00,53.8,41.0,30.10,West,277,10.0,14.0,62,0.00,,,0.00,meteohub,2013-02-21 20:27:00,
2013-02-21 12:32:00,54.0,38.7,30.10,West,260,8.0,14.0,56,0.00,,,0.00,meteohub,2013-02-21 20:32:00,
2013-02-21 12:37:00,54.1,40.1,30.10,West,265,10.0,13.0,59,0.00,,,0.00,meteohub,2013-02-21 20:37:00,
2013-02-21 12:42:00,53.8,39.7,30.09,WSW,254,10.0,14.0,59,0.00,,,0.00,meteohub,2013-02-21 20:42:00,
2013-02-21 12:47:00,54.3,40.8,30.09,WNW,294,7.0,14.0,60,0.00,,,0.00,meteohub,2013-02-21 20:47:00,
2013-02-21 12:52:00,54.7,38.3,30.09,West,265,12.0,14.0,54,0.00,,,0.00,meteohub,2013-02-21 20:52:00,
2013-02-21 12:57:00,54.5,38.1,30.09,WNW,285,10.0,14.0,54,0.00,,,0.00,meteohub,2013-02-21 20:57:00,
2013-02-21 13:02:00,54.9,39.9,30.09,West,262,8.0,14.0,57,0.00,,,0.00,meteohub,2013-02-21 21:02:00,
2013-02-21 13:07:00,54.9,39.9,30.09,WSW,249,13.0,14.0,57,0.00,,,0.00,meteohub,2013-02-21 21:07:00,
2013-02-21 13:12:00,55.2,42.4,30.09,WSW,253,11.0,15.0,62,0.00,,,0.00,meteohub,2013-02-21 21:12:00,
2013-02-21 13:17:00,55.0,42.6,30.09,WSW,247,14.0,16.0,63,0.00,,,0.00,meteohub,2013-02-21 21:17:00,
2013-02-21 13:22:00,54.7,39.7,30.09,West,276,9.0,19.0,57,0.00,,,0.00,meteohub,2013-02-21 21:22:00,
2013-02-21 13:27:00,55.0,40.1,30.09,SW,234,14.0,19.0,57,0.00,,,0.00,meteohub,2013-02-21 21:27:00,
2013-02-21 13:32:00,55.0,39.2,30.09,WSW,248,17.0,19.0,55,0.00,,,0.00,meteohub,2013-02-21 21:32:00,
2013-02-21 13:37:00,54.7,40.3,30.09,West,269,14.0,19.0,58,0.00,,,0.00,meteohub,2013-02-21 21:37:00,
2013-02-21 13:42:00,54.9,39.9,30.09,WSW,250,11.0,19.0,57,0.00,,,0.00,meteohub,2013-02-21 21:42:00,
2013-02-21 13:47:00,55.0,39.6,30.09,West,264,13.0,19.0,56,0.00,,,0.00,meteohub,2013-02-21 21:47:00,
2013-02-21 13:52:00,55.0,39.6,30.09,West,262,12.0,20.0,56,0.00,,,0.00,meteohub,2013-02-21 21:52:00,
2013-02-21 13:57:00,55.0,38.7,30.08,West,269,13.0,20.0,54,0.00,,,0.00,meteohub,2013-02-21 21:57:00,
2013-02-21 14:02:00,54.7,37.9,30.08,West,277,12.0,20.0,53,0.00,,,0.00,meteohub,2013-02-21 22:02:00,
2013-02-21 14:07:00,54.9,38.5,30.08,WSW,252,14.0,19.0,54,0.00,,,0.00,meteohub,2013-02-21 22:07:00,
2013-02-21 14:12:00,55.0,40.1,30.08,WSW,256,14.0,20.0,57,0.00,,,0.00,meteohub,2013-02-21 22:12:00,
2013-02-21 14:17:00,54.9,39.4,30.08,West,259,15.0,20.0,56,0.00,,,0.00,meteohub,2013-02-21 22:17:00,
2013-02-21 14:22:00,54.5,40.8,30.08,West,262,15.0,20.0,60,0.00,,,0.00,meteohub,2013-02-21 22:22:00,
2013-02-21 14:27:00,54.5,42.1,30.08,West,261,14.0,18.0,63,0.00,,,0.00,meteohub,2013-02-21 22:27:00,
2013-02-21 14:32:00,54.5,42.1,30.08,WSW,248,13.0,21.0,63,0.00,,,0.00,meteohub,2013-02-21 22:32:00,
2013-02-21 14:37:00,54.7,43.5,30.08,West,274,17.0,21.0,66,0.00,,,0.00,meteohub,2013-02-21 22:37:00,
2013-02-21 14:42:00,54.0,42.4,30.08,West,277,15.0,21.0,65,0.00,,,0.00,meteohub,2013-02-21 22:42:00,
2013-02-21 14:47:00,53.4,42.3,30.08,West,273,11.0,18.0,66,0.00,,,0.00,meteohub,2013-02-21 22:47:00,
2013-02-21 14:52:00,53.2,42.3,30.08,WNW,284,11.0,18.0,66,0.00,,,0.00,meteohub,2013-02-21 22:52:00,
2013-02-21 14:57:00,53.4,43.2,30.08,West,280,14.0,19.0,68,0.00,,,0.00,meteohub,2013-02-21 22:57:00,
2013-02-21 15:02:00,53.4,43.2,30.08,WNW,283,12.0,19.0,68,0.00,,,0.00,meteohub,2013-02-21 23:02:00,
2013-02-21 15:07:00,53.4,43.2,30.08,West,271,12.0,17.0,68,0.00,,,0.00,meteohub,2013-02-21 23:07:00,
2013-02-21 15:12:00,53.2,43.3,30.07,West,281,13.0,17.0,69,0.00,,,0.00,meteohub,2013-02-21 23:12:00,
2013-02-21 15:17:00,53.1,42.8,30.07,West,277,10.0,18.0,68,0.00,,,0.00,meteohub,2013-02-21 23:17:00,
2013-02-21 15:22:00,53.1,42.4,30.07,West,264,15.0,18.0,67,0.00,,,0.00,meteohub,2013-02-21 23:22:00,
2013-02-21 15:27:00,52.9,43.0,30.07,West,269,9.0,20.0,69,0.00,,,0.00,meteohub,2013-02-21 23:27:00,
2013-02-21 15:32:00,52.9,42.3,30.07,West,276,14.0,20.0,67,0.00,,,0.00,meteohub,2013-02-21 23:32:00,
2013-02-21 15:37:00,52.9,42.6,30.07,West,261,14.0,20.0,68,0.00,,,0.00,meteohub,2013-02-21 23:37:00,
2013-02-21 15:42:00,52.9,42.6,30.06,West,266,12.0,18.0,68,0.00,,,0.00,meteohub,2013-02-21 23:42:00,
2013-02-21 15:47:00,53.1,42.4,30.06,West,275,12.0,18.0,67,0.00,,,0.00,meteohub,2013-02-21 23:47:00,
2013-02-21 15:52:00,52.7,42.1,30.06,West,271,11.0,18.0,67,0.00,,,0.00,meteohub,2013-02-21 23:52:00,
2013-02-21 15:57:00,52.5,42.3,30.07,West,269,12.0,15.0,68,0.00,,,0.00,meteohub,2013-02-21 23:57:00,
2013-02-21 16:02:00,52.9,43.7,30.07,WSW,254,12.0,16.0,71,0.00,,,0.00,meteohub,2013-02-22 00:02:00,
2013-02-21 16:07:00,52.9,43.7,30.07,West,261,10.0,16.0,71,0.00,,,0.00,meteohub,2013-02-22 00:07:00,
2013-02-21 16:12:00,52.9,43.7,30.07,West,272,8.0,16.0,71,0.00,,,0.00,meteohub,2013-02-22 00:12:00,
2013-02-21 16:17:00,53.1,43.9,30.07,WSW,254,12.0,14.0,71,0.00,,,0.00,meteohub,2013-02-22 00:17:00,
2013-02-21 16:22:00,52.5,43.0,30.07,WSW,254,17.0,17.0,70,0.00,,,0.00,meteohub,2013-02-22 00:22:00,
2013-02-21 16:27:00,52.3,43.2,30.06,WSW,248,12.0,17.0,71,0.00,,,0.00,meteohub,2013-02-22 00:27:00,
2013-02-21 16:32:00,52.2,43.3,30.06,West,275,14.0,17.0,72,0.00,,,0.00,meteohub,2013-02-22 00:32:00,
2013-02-21 16:37:00,52.0,42.8,30.06,West,261,17.0,17.0,71,0.00,,,0.00,meteohub,2013-02-22 00:37:00,
2013-02-21 16:42:00,51.6,43.0,30.07,West,263,10.0,18.0,72,0.00,,,0.00,meteohub,2013-02-22 00:42:00,
2013-02-21 16:47:00,51.4,42.8,30.07,West,268,7.0,18.0,72,0.00,,,0.00,meteohub,2013-02-22 00:47:00,
2013-02-21 16:52:00,50.9,42.6,30.07,West,267,12.0,18.0,73,0.00,,,0.00,meteohub,2013-02-22 00:52:00,
2013-02-21 16:57:00,50.4,42.1,30.07,West,261,7.0,16.0,73,0.00,,,0.00,meteohub,2013-02-22 00:57:00,
2013-02-21 17:02:00,50.4,42.1,30.07,WSW,258,9.0,15.0,73,0.00,,,0.00,meteohub,2013-02-22 01:02:00,
2013-02-21 17:07:00,50.4,42.4,30.07,WSW,251,12.0,15.0,74,0.00,,,0.00,meteohub,2013-02-22 01:07:00,
2013-02-21 17:12:00,50.4,42.4,30.08,WSW,248,8.0,15.0,74,0.00,,,0.00,meteohub,2013-02-22 01:12:00,
2013-02-21 17:17:00,50.2,42.6,30.08,WSW,248,9.0,12.0,75,0.00,,,0.00,meteohub,2013-02-22 01:17:00,
2013-02-21 17:22:00,49.8,42.3,30.08,WSW,250,6.0,12.0,75,0.00,,,0.00,meteohub,2013-02-22 01:22:00,
2013-02-21 17:27:00,49.5,42.3,30.08,WSW,249,6.0,11.0,76,0.00,,,0.00,meteohub,2013-02-22 01:27:00,
2013-02-21 17:32:00,49.3,42.1,30.08,WSW,246,8.0,11.0,76,0.00,,,0.00,meteohub,2013-02-22 01:32:00,
2013-02-21 17:37:00,48.9,41.7,30.08,WSW,245,5.0,11.0,76,0.00,,,0.00,meteohub,2013-02-22 01:37:00,
2013-02-21 17:42:00,48.4,41.2,30.07,WSW,244,6.0,11.0,76,0.00,,,0.00,meteohub,2013-02-22 01:42:00,
2013-02-21 17:47:00,47.8,41.4,30.07,SW,228,8.0,9.0,78,0.00,,,0.00,meteohub,2013-02-22 01:47:00,
2013-02-21 17:52:00,47.3,41.2,30.07,SW,227,7.0,10.0,79,0.00,,,0.00,meteohub,2013-02-22 01:52:00,
2013-02-21 17:57:00,46.9,41.2,30.07,SW,219,6.0,10.0,80,0.00,,,0.00,meteohub,2013-02-22 01:57:00,
2013-02-21 18:02:00,46.8,41.0,30.07,SW,223,6.0,10.0,80,0.00,,,0.00,meteohub,2013-02-22 02:02:00,
2013-02-21 18:07:00,46.4,40.8,30.07,SW,223,4.0,10.0,81,0.00,,,0.00,meteohub,2013-02-22 02:07:00,
2013-02-21 18:12:00,46.4,40.8,30.07,SW,223,4.0,10.0,81,0.00,,,0.00,meteohub,2013-02-22 02:12:00,
2013-02-21 18:17:00,46.4,40.8,30.07,SW,223,5.0,7.0,81,0.00,,,0.00,meteohub,2013-02-22 02:17:00,
2013-02-21 18:22:00,46.2,40.6,30.07,SW,223,4.0,6.0,81,0.00,,,0.00,meteohub,2013-02-22 02:22:00,
2013-02-21 18:27:00,46.0,40.8,30.08,SW,221,4.0,7.0,82,0.00,,,0.00,meteohub,2013-02-22 02:27:00,
2013-02-21 18:32:00,46.2,41.4,30.08,SSW,213,7.0,7.0,83,0.00,,,0.00,meteohub,2013-02-22 02:32:00,
2013-02-21 18:37:00,46.2,41.0,30.08,SSW,213,5.0,9.0,82,0.00,,,0.00,meteohub,2013-02-22 02:37:00,
2013-02-21 18:42:00,46.4,41.2,30.08,SSW,212,6.0,9.0,82,0.00,,,0.00,meteohub,2013-02-22 02:42:00,
2013-02-21 18:47:00,46.8,41.5,30.08,SSW,213,5.0,9.0,82,0.00,,,0.00,meteohub,2013-02-22 02:47:00,
2013-02-21 18:52:00,46.8,41.2,30.08,SW,215,3.0,7.0,81,0.00,,,0.00,meteohub,2013-02-22 02:52:00,
2013-02-21 18:57:00,46.9,41.4,30.09,SW,215,2.0,7.0,81,0.00,,,0.00,meteohub,2013-02-22 02:57:00,
2013-02-21 19:02:00,46.9,41.4,30.09,SW,215,3.0,7.0,81,0.00,,,0.00,meteohub,2013-02-22 03:02:00,
2013-02-21 19:07:00,46.9,41.4,30.09,SW,215,4.0,6.0,81,0.00,,,0.00,meteohub,2013-02-22 03:07:00,
2013-02-21 19:12:00,46.8,41.2,30.09,SW,215,2.0,4.0,81,0.00,,,0.00,meteohub,2013-02-22 03:12:00,
2013-02-21 19:17:00,46.6,41.0,30.09,SW,215,3.0,4.0,81,0.00,,,0.00,meteohub,2013-02-22 03:17:00,
2013-02-21 19:22:00,46.6,41.0,30.09,SW,215,2.0,4.0,81,0.00,,,0.00,meteohub,2013-02-22 03:22:00,
2013-02-21 19:27:00,46.6,41.0,30.09,SW,215,2.0,4.0,81,0.00,,,0.00,meteohub,2013-02-22 03:27:00,
2013-02-21 19:32:00,46.6,41.0,30.09,SW,215,0.0,4.0,81,0.00,,,0.00,meteohub,2013-02-22 03:32:00,
2013-02-21 19:37:00,46.6,41.4,30.09,SW,215,0.0,3.0,82,0.00,,,0.00,meteohub,2013-02-22 03:37:00,
2013-02-21 19:42:00,46.4,41.2,30.09,SW,215,1.0,3.0,82,0.00,,,0.00,meteohub,2013-02-22 03:42:00,
2013-02-21 19:47:00,46.2,41.0,30.09,SW,215,0.0,2.0,82,0.00,,,0.00,meteohub,2013-02-22 03:47:00,
2013-02-21 19:52:00,46.2,41.0,30.09,SW,215,1.0,3.0,82,0.00,,,0.00,meteohub,2013-02-22 03:52:00,
2013-02-21 19:57:00,46.2,41.0,30.09,SW,215,0.0,3.0,82,0.00,,,0.00,meteohub,2013-02-22 03:57:00,
2013-02-21 20:02:00,46.2,41.0,30.09,SW,215,0.0,3.0,82,0.00,,,0.00,meteohub,2013-02-22 04:02:00,
2013-02-21 20:07:00,46.2,41.0,30.09,SW,215,0.0,3.0,82,0.00,,,0.00,meteohub,2013-02-22 04:07:00,
2013-02-21 20:12:00,46.2,41.0,30.09,SW,215,0.0,2.0,82,0.00,,,0.00,meteohub,2013-02-22 04:12:00,
2013-02-21 20:17:00,46.2,41.0,30.09,SW,215,0.0,0.0,82,0.00,,,0.00,meteohub,2013-02-22 04:17:00,
2013-02-21 20:22:00,46.2,41.0,30.09,SW,215,0.0,2.0,82,0.00,,,0.00,meteohub,2013-02-22 04:22:00,
2013-02-21 20:27:00,46.4,41.2,30.09,SW,215,2.0,2.0,82,0.00,,,0.00,meteohub,2013-02-22 04:27:00,
2013-02-21 20:37:00,46.6,41.4,30.09,SW,215,0.0,3.0,82,0.00,,,0.00,meteohub,2013-02-22 04:37:00,
2013-02-21 20:42:00,46.6,41.4,30.10,SW,215,0.0,3.0,82,0.00,,,0.00,meteohub,2013-02-22 04:42:00,
2013-02-21 20:47:00,46.6,41.0,30.10,SW,215,0.0,1.0,81,0.00,,,0.00,meteohub,2013-02-22 04:47:00,
2013-02-21 20:52:00,46.6,41.0,30.10,SW,215,0.0,1.0,81,0.00,,,0.00,meteohub,2013-02-22 04:52:00,
2013-02-21 20:57:00,46.4,40.8,30.10,SW,215,0.0,0.0,81,0.00,,,0.00,meteohub,2013-02-22 04:57:00,
2013-02-21 21:02:00,46.2,41.0,30.10,SW,215,1.0,1.0,82,0.00,,,0.00,meteohub,2013-02-22 05:02:00,
2013-02-21 21:07:00,46.2,41.0,30.10,SW,215,0.0,1.0,82,0.00,,,0.00,meteohub,2013-02-22 05:07:00,
2013-02-21 21:12:00,46.2,41.0,30.10,SW,215,0.0,1.0,82,0.00,,,0.00,meteohub,2013-02-22 05:12:00,
2013-02-21 21:17:00,46.2,41.0,30.10,SW,215,0.0,1.0,82,0.00,,,0.00,meteohub,2013-02-22 05:17:00,
2013-02-21 21:22:00,46.4,41.2,30.10,SW,215,0.0,1.0,82,0.00,,,0.00,meteohub,2013-02-22 05:22:00,
2013-02-21 21:27:00,46.4,41.2,30.10,SW,215,0.0,1.0,82,0.00,,,0.00,meteohub,2013-02-22 05:27:00,
2013-02-21 21:32:00,46.2,41.0,30.10,SW,215,0.0,1.0,82,0.00,,,0.00,meteohub,2013-02-22 05:32:00,
2013-02-21 21:37:00,46.2,41.0,30.10,SW,215,0.0,0.0,82,0.00,,,0.00,meteohub,2013-02-22 05:37:00,
2013-02-21 21:42:00,46.0,40.5,30.11,SW,215,0.0,0.0,81,0.00,,,0.00,meteohub,2013-02-22 05:42:00,
2013-02-21 21:47:00,45.9,40.6,30.11,SW,215,0.0,0.0,82,0.00,,,0.00,meteohub,2013-02-22 05:47:00,
2013-02-21 21:52:00,45.9,41.0,30.11,SW,215,0.0,2.0,83,0.00,,,0.00,meteohub,2013-02-22 05:52:00,
2013-02-21 21:57:00,46.0,40.8,30.12,SW,215,0.0,2.0,82,0.00,,,0.00,meteohub,2013-02-22 05:57:00,
2013-02-21 22:02:00,46.4,41.2,30.12,SW,215,0.0,2.0,82,0.00,,,0.00,meteohub,2013-02-22 06:02:00,
2013-02-21 22:07:00,46.6,41.0,30.12,SW,215,0.0,1.0,81,0.00,,,0.00,meteohub,2013-02-22 06:07:00,
2013-02-21 22:12:00,46.8,41.0,30.12,SW,215,1.0,2.0,80,0.00,,,0.00,meteohub,2013-02-22 06:12:00,
2013-02-21 22:17:00,46.9,40.8,30.12,SW,215,2.0,3.0,79,0.00,,,0.00,meteohub,2013-02-22 06:17:00,
2013-02-21 22:22:00,47.1,40.6,30.12,SW,215,0.0,3.0,78,0.00,,,0.00,meteohub,2013-02-22 06:22:00,
2013-02-21 22:27:00,47.3,40.5,30.12,SW,215,0.0,3.0,77,0.00,,,0.00,meteohub,2013-02-22 06:27:00,
2013-02-21 22:32:00,47.1,40.3,30.12,SW,215,0.0,3.0,77,0.00,,,0.00,meteohub,2013-02-22 06:32:00,
2013-02-21 22:37:00,46.9,40.1,30.12,SW,215,0.0,1.0,77,0.00,,,0.00,meteohub,2013-02-22 06:37:00,
2013-02-21 22:42:00,46.6,39.7,30.12,SW,215,0.0,0.0,77,0.00,,,0.00,meteohub,2013-02-22 06:42:00,
2013-02-21 22:47:00,46.2,39.7,30.12,SW,215,0.0,0.0,78,0.00,,,0.00,meteohub,2013-02-22 06:47:00,
2013-02-21 22:52:00,45.9,39.7,30.12,SW,215,1.0,2.0,79,0.00,,,0.00,meteohub,2013-02-22 06:52:00,
2013-02-21 22:57:00,45.1,39.4,30.12,SW,215,0.0,3.0,80,0.00,,,0.00,meteohub,2013-02-22 06:57:00,
2013-02-21 23:02:00,44.8,39.4,30.12,SW,215,0.0,3.0,81,0.00,,,0.00,meteohub,2013-02-22 07:02:00,
2013-02-21 23:07:00,44.1,38.8,30.12,SW,215,0.0,3.0,82,0.00,,,0.00,meteohub,2013-02-22 07:07:00,
2013-02-21 23:12:00,43.5,39.0,30.12,SW,215,0.0,0.0,84,0.00,,,0.00,meteohub,2013-02-22 07:12:00,
2013-02-21 23:17:00,43.3,38.8,30.12,SW,215,0.0,0.0,84,0.00,,,0.00,meteohub,2013-02-22 07:17:00,
2013-02-21 23:22:00,43.3,39.2,30.12,SW,215,0.0,0.0,85,0.00,,,0.00,meteohub,2013-02-22 07:22:00,
2013-02-21 23:27:00,43.3,39.2,30.12,SW,215,0.0,0.0,85,0.00,,,0.00,meteohub,2013-02-22 07:27:00,
2013-02-21 23:32:00,43.2,39.0,30.12,SW,215,0.0,0.0,85,0.00,,,0.00,meteohub,2013-02-22 07:32:00,
2013-02-21 23:37:00,43.0,38.8,30.12,SW,215,0.0,0.0,85,0.00,,,0.00,meteohub,2013-02-22 07:37:00,
2013-02-21 23:42:00,43.0,39.0,30.13,SW,215,0.0,0.0,86,0.00,,,0.00,meteohub,2013-02-22 07:42:00,
2013-02-21 23:47:00,43.0,39.0,30.13,SW,215,0.0,2.0,86,0.00,,,0.00,meteohub,2013-02-22 07:47:00,
2013-02-21 23:52:00,43.0,39.0,30.13,SW,215,0.0,3.0,86,0.00,,,0.00,meteohub,2013-02-22 07:52:00,
2013-02-21 23:57:00,42.6,39.0,30.13,SW,215,0.0,3.0,87,0.00,,,0.00,meteohub,2013-02-22 07:57:00,